Retour au catalogue

FENGYUN 1C DEB

ActifSSO
NORAD 30718·DEBRIS·🇨🇳 China

Lancé May 10, 1999 depuis Taiyuan Satellite Launch Center

Loading…

Prochains Passages (prochaines 24 heures)

TLE

FraisSource: Space-Track

Époque: Sep 14, 2026, 12:26 UTC

1 30718U 99025ASC 26257.51844961  .00001852  00000-0  78302-3 0  9993
2 30718  98.8818 346.3766 0055470  81.7334 279.0131 14.25945339  6683

Suivez FENGYUN 1C DEB en temps réel avec AllMySat

Download on the App Store